RJGG

Chūbu Centrair International Airport

Airport
ICAO code
RJGG
IATA Code
NGO
Summary
ICAO Region
APAC
ICAO Territory
Location

Ise Bay, Aichi Prefecture

Serving
Nagoya
Elevation
12 ft
Coordinates
34° 51' 32" N , 136° 48' 52" E
KCC
Metar
Observation
RJGG 290800Z 15019KT 9999 -SHRA FEW010 SCT020 BKN030 20/18 Q1009 TEMPO 4000 SHRA BR
Station
Nagoya Airport
Date/Time
2022-11-29 08:00:00
Wind direction
150°
Wind speed
19 kts
Lowest cloud amount
few clouds
Temperature
20°C
Dew point
18°C
Humidity
88%
QNH
1009 hPa
Weather condition
light showers rain

Chūbu Centrair International Airport is an airport on an artificial island in Ise Bay, Tokoname City in Aichi Prefecture, 35 km south of Nagoya in central Japan.

Climatology

Humid “subtropical” climate (Köppen climate classification Cfa) - characterized by hot, humid summers and cool winters. Significant amounts of precipitation occur in all seasons in most areas. Winter rainfall (and sometimes snowfall) is associated with large storms that the westerlies steer from west to east. Most summer rainfall occurs during thunderstorms.

Runways

Designator Length Width Surface Rops
18/36 3500 60 PEM Yes/Yes

Airport map

Aerial View

SKYbrary Partners:

Safety knowledge contributed by: